Regional Weather Roundup
Issued by NWS Jackson, KY

Home | Current Version | Previous Version | Graphics & Text | Print | Product List | Glossary On
Versions: 1 2 3 4 5 6 7 8 9 10 11 12 13 14 15 16 17 18 19 20 21 22 23 24 25 26 27 28 29 30 31 32 33 34 35 36 37 38 39 40 41 42 43 44 45 46 47 48 49 50
000
ASUS43 KJKL 300210
RWRJKL

EAST KENTUCKY HOURLY WEATHER ROUNDUP
NATIONAL WEATHER SERVICE JACKSON KY
900 PM EST THU JAN 29 2015

NOTE: "FAIR" INDICATES FEW OR NO CLOUDS BELOW 12,000 FEET WITH
NO SIGNIFICANT WEATHER AND/OR OBSTRUCTIONS TO VISIBILITY.

* THESE REPORTS ARE NOT UNDER NWS QUALITY CONTROL AND MAY NOT
  REPORT WEATHER SUCH AS PRECIPITATION AND FOG.

KYZ079-080-083-085-087-088-110-112-115-119-120-300300
...EASTERN KENTUCKY...

CITY           SKY/WX    TMP DP  RH WIND       PRES   REMARKS
JACKSON        CLOUDY    38  30  73 NW9G18    30.11R WCI  31
LONDON         CLOUDY    39  30  70 NW14G22   30.15R WCI  31
SOMERSET*      CLOUDY    37  30  75 NW13      30.20R WCI  29
MONTICELLO*    CLOUDY    39  33  79 NW14      30.23R WCI  31
MIDDLESBORO*   CLOUDY    44  37  77 NW10G20   30.13R
HARLAN APT*    CLOUDY    43  34  70 W13G22    30.09R
HAZARD APT*    CLOUDY    39  32  75 NW7G16    30.12R WCI  34
BLACK MTN*       N/A     30  30 100 NW2         N/A
PIKEVILLE APT* CLOUDY    39  32  75 W10G20    30.08R WCI  32
BIG SANDY*     CLOUDY    40  32  73 W10G17    30.08R WCI  34
MOREHEAD APT*  CLOUDY    36  32  87 NW10G17   30.14R WCI  28
$$

KYZ035-036-041-042-044-050-067-078-099-300300
...CENTRAL KENTUCKY...

CITY           SKY/WX    TMP DP  RH WIND       PRES   REMARKS
MT STERLING*   CLOUDY    34  34 100 NW8G17    30.15R FOG     WCI  27
FLEMING/MASON* CLOUDY    34  31  90 NW16G23   30.14R WCI  23
DANVILLE*      CLOUDY    36  32  87 NW14G21   30.18R WCI  27
RICHMOND*      CLOUDY    37  30  75 NW10G17   30.16R WCI  30
LEXINGTON      LGT RAIN  35  31  85 W16G24    30.17R WCI  25
FRANKFORT      CLOUDY    35  30  82 W10G18    30.17R WCI  27
$$

KYZ091>093-OHZ055-061-077-WVZ005-015-034-035-042-300300
...SOUTHERN OHIO/WEST VIRGINIA...

CITY           SKY/WX    TMP DP  RH WIND       PRES   REMARKS
COVINGTON      CLOUDY    34  30  85 NW15G22   30.14R FOG     WCI  24
COLUMBUS       LGT SNOW  32  30  92 W16       30.02R FOG     WCI  21
DAYTON         LGT SNOW  33  30  88 NW20      30.09R FOG     WCI  21
WILMINGTON     MIX PCPN  32  28  85 W14       30.08R FOG     WCI  22
HUNTINGTON     CLOUDY    38  31  76 NW10G22   30.08R WCI  31
CHARLESTON     DRIZZLE   41  35  79 NW16G28   30.03R
PINEVILLE*     CLOUDY    41  39  91 MISG      30.03R
BECKLEY        CLOUDY    43  31  62 W12       29.94R
BLUEFIELD      CLOUDY    47  32  56 W12       29.95S
$$

VAZ002-007-008-TNZ017-027-036-066-071-300300
...SOUTHWEST VIRGINIA/EAST TENNESSEE...

CITY           SKY/WX    TMP DP  RH WIND       PRES   REMARKS
WISE*          CLOUDY    43  36  75 NW12G18   30.02R
JONESVILLE*    CLOUDY    48  39  71 NW13      30.07R
ABINGDON*      CLOUDY    44  32  63 W6        30.01S
BRISTOL        CLOUDY    45  36  70 CALM      30.02S
KNOXVILLE      CLOUDY    53  35  50 SW22      30.04S
OAK RIDGE      CLOUDY    53  38  56 VRB7      30.09R
CROSSVILLE     CLOUDY    39  33  79 NW20G28   30.16R WCI  29
NASHVILLE      CLOUDY    42  31  64 NW14G20   30.28R
$$

...KEY TO REMARKS...
VSB - VISIBILITY IN MILES
WCI - WIND CHILL INDEX
HX  - HEAT INDEX

$$


USA.gov is the U.S. government's official web portal to all federal, state and local government web resources and services.